contact:dominique.lefevre@mio.osupytheas.fr, maurice.libes@osupytheas.fr, didier.mallarino@osupytheas.fr
Project:EMSO http://www.emso-fr.org/EMSO-France
Depth: 2436.0 m
Title:EMSO Ligure Ouest : Data MII capteur MICROCAT
DateTime_Computer,Latitude,Longitude,Temperature,Conductivity,Pressure,DateTime_Instrument
DateTime_Computer,Latitude,Longitude,degC,S m-1,dbar,DateTime_Instrument
2023-04-23T00:02:00Z,42.805,6.029,13.3037,4.60120,2470.74,2023-4-23T02:05:01Z
2023-04-23T00:05:03Z,42.805,6.029,13.3048,4.60124,2470.717,2023-4-23T02:08:04Z
2023-04-23T00:08:06Z,42.805,6.029,13.3033,4.60115,2470.763,2023-4-23T02:11:07Z
2023-04-23T00:11:09Z,42.805,6.029,13.3041,4.60134,2470.73,2023-4-23T02:14:10Z
2023-04-23T00:14:12Z,42.805,6.029,13.3040,4.60122,2470.74,2023-4-23T02:17:13Z
2023-04-23T00:17:15Z,42.805,6.029,13.3057,4.60140,2470.73,2023-4-23T02:20:16Z
2023-04-23T00:20:18Z,42.805,6.029,13.3039,4.60140,2470.74,2023-4-23T02:23:19Z
2023-04-23T00:23:21Z,42.805,6.029,13.3035,4.60118,2470.73,2023-4-23T02:26:22Z
2023-04-23T00:26:24Z,42.805,6.029,13.3038,4.60113,2470.717,2023-4-23T02:29:25Z
2023-04-23T00:29:27Z,42.805,6.029,13.3053,4.60111,2470.717,2023-4-23T02:32:28Z
2023-04-23T00:32:30Z,42.805,6.029,13.3043,4.60119,2470.707,2023-4-23T02:35:31Z
2023-04-23T00:35:33Z,42.805,6.029,13.3058,4.60137,2470.754,2023-4-23T02:38:34Z
2023-04-23T00:38:36Z,42.805,6.029,13.3049,4.60095,2470.707,2023-4-23T02:41:37Z
2023-04-23T00:41:40Z,42.805,6.029,13.3039,4.60119,2470.754,2023-4-23T02:44:41Z
2023-04-23T00:44:43Z,42.805,6.029,13.3054,4.60102,2470.707,2023-4-23T02:47:44Z
2023-04-23T00:47:46Z,42.805,6.029,13.3048,4.60102,2470.679,2023-4-23T02:50:47Z
2023-04-23T00:50:49Z,42.805,6.029,13.3039,4.60091,2470.73,2023-4-23T02:53:50Z
2023-04-23T00:53:52Z,42.805,6.029,13.3043,4.60095,2470.717,2023-4-23T02:56:53Z
2023-04-23T00:56:55Z,42.805,6.029,13.3049,4.60132,2470.67,2023-4-23T02:59:56Z
2023-04-23T00:59:58Z,42.805,6.029,13.3045,4.60092,2470.707,2023-4-23T03:02:59Z
2023-04-23T01:03:01Z,42.805,6.029,13.3044,4.60116,2470.707,2023-4-23T03:06:02Z
2023-04-23T01:06:04Z,42.805,6.029,13.3040,4.60110,2470.693,2023-4-23T03:09:05Z
2023-04-23T01:09:07Z,42.805,6.029,13.3044,4.60092,2470.73,2023-4-23T03:12:08Z
2023-04-23T01:12:10Z,42.805,6.029,13.3038,4.60084,2470.717,2023-4-23T03:15:11Z
2023-04-23T01:15:13Z,42.805,6.029,13.3064,4.60113,2470.717,2023-4-23T03:18:14Z
2023-04-23T01:18:17Z,42.805,6.029,13.3023,4.60102,2470.693,2023-4-23T03:21:18Z
2023-04-23T01:21:20Z,42.805,6.029,13.3050,4.60114,2470.693,2023-4-23T03:24:21Z
2023-04-23T01:24:23Z,42.805,6.029,13.3055,4.60116,2470.661,2023-4-23T03:27:24Z
2023-04-23T01:27:26Z,42.805,6.029,13.3050,4.60117,2470.67,2023-4-23T03:30:27Z
2023-04-23T01:30:29Z,42.805,6.029,13.3054,4.60138,2470.707,2023-4-23T03:33:30Z
2023-04-23T01:33:32Z,42.805,6.029,13.3054,4.60114,2470.693,2023-4-23T03:36:33Z
2023-04-23T01:36:35Z,42.805,6.029,13.3050,4.60110,2470.684,2023-4-23T03:39:36Z
2023-04-23T01:39:38Z,42.805,6.029,13.3047,4.60104,2470.67,2023-4-23T03:42:39Z
2023-04-23T01:42:41Z,42.805,6.029,13.3046,4.60104,2470.717,2023-4-23T03:45:42Z
2023-04-23T01:45:44Z,42.805,6.029,13.3032,4.60099,2470.717,2023-4-23T03:48:45Z
2023-04-23T01:48:47Z,42.805,6.029,13.3043,4.60100,2470.67,2023-4-23T03:51:48Z
2023-04-23T01:51:50Z,42.805,6.029,13.3042,4.60097,2470.684,2023-4-23T03:54:51Z
2023-04-23T01:54:54Z,42.805,6.029,13.3043,4.60109,2470.67,2023-4-23T03:57:55Z
2023-04-23T01:57:57Z,42.805,6.029,13.3050,4.60097,2470.67,2023-4-23T04:00:58Z
2023-04-23T02:01:00Z,42.805,6.029,13.3045,4.60109,2470.67,2023-4-23T04:04:01Z
2023-04-23T02:04:03Z,42.805,6.029,13.3036,4.60122,2470.67,2023-4-23T04:07:04Z
2023-04-23T02:07:06Z,42.805,6.029,13.3040,4.60122,2470.646,2023-4-23T04:10:07Z
2023-04-23T02:10:09Z,42.805,6.029,13.3041,4.60125,2470.684,2023-4-23T04:13:10Z
2023-04-23T02:13:12Z,42.805,6.029,13.3041,4.60123,2470.684,2023-4-23T04:16:13Z
2023-04-23T02:16:15Z,42.805,6.029,13.3049,4.60112,2470.67,2023-4-23T04:19:16Z
2023-04-23T02:19:18Z,42.805,6.029,13.3037,4.60125,2470.717,2023-4-23T04:22:19Z
2023-04-23T02:22:21Z,42.805,6.029,13.3040,4.60126,2470.661,2023-4-23T04:25:22Z
2023-04-23T02:25:24Z,42.805,6.029,13.3047,4.60119,2470.646,2023-4-23T04:28:25Z
2023-04-23T02:28:27Z,42.805,6.029,13.3038,4.60131,2470.67,2023-4-23T04:31:28Z
2023-04-23T02:31:31Z,42.805,6.029,13.3046,4.60119,2470.646,2023-4-23T04:34:32Z
2023-04-23T02:34:34Z,42.805,6.029,13.3037,4.60128,2470.707,2023-4-23T04:37:35Z
2023-04-23T02:37:37Z,42.805,6.029,13.3039,4.60132,2470.684,2023-4-23T04:40:38Z
2023-04-23T02:40:40Z,42.805,6.029,13.3041,4.60131,2470.698,2023-4-23T04:43:41Z
2023-04-23T02:43:43Z,42.805,6.029,13.3038,4.60114,2470.646,2023-4-23T04:46:44Z
2023-04-23T02:46:46Z,42.805,6.029,13.3043,4.60137,2470.684,2023-4-23T04:49:47Z
2023-04-23T02:49:49Z,42.805,6.029,13.3038,4.60117,2470.624,2023-4-23T04:52:50Z
2023-04-23T02:52:52Z,42.805,6.029,13.3040,4.60114,2470.67,2023-4-23T04:55:53Z
2023-04-23T02:55:55Z,42.805,6.029,13.3041,4.60114,2470.646,2023-4-23T04:58:56Z
2023-04-23T02:58:58Z,42.805,6.029,13.3034,4.60122,2470.646,2023-4-23T05:01:59Z
2023-04-23T03:02:01Z,42.805,6.029,13.3045,4.60120,2470.661,2023-4-23T05:05:02Z
2023-04-23T03:05:04Z,42.805,6.029,13.3034,4.60103,2470.661,2023-4-23T05:08:05Z
2023-04-23T03:08:07Z,42.805,6.029,13.3033,4.60122,2470.661,2023-4-23T05:11:09Z
2023-04-23T03:11:11Z,42.805,6.029,13.3039,4.60125,2470.661,2023-4-23T05:14:12Z
2023-04-23T03:14:14Z,42.805,6.029,13.3046,4.60109,2470.633,2023-4-23T05:17:15Z
2023-04-23T03:17:17Z,42.805,6.029,13.3042,4.60135,2470.624,2023-4-23T05:20:18Z
2023-04-23T03:20:20Z,42.805,6.029,13.3029,4.60127,2470.67,2023-4-23T05:23:21Z
2023-04-23T03:23:23Z,42.805,6.029,13.3038,4.60131,2470.637,2023-4-23T05:26:24Z
2023-04-23T03:26:26Z,42.805,6.029,13.3037,4.60114,2470.684,2023-4-23T05:29:27Z
2023-04-23T03:29:29Z,42.805,6.029,13.3036,4.60114,2470.67,2023-4-23T05:32:30Z
2023-04-23T03:32:32Z,42.805,6.029,13.3036,4.60136,2470.707,2023-4-23T05:35:33Z
2023-04-23T03:35:35Z,42.805,6.029,13.3034,4.60114,2470.646,2023-4-23T05:38:36Z
2023-04-23T03:38:38Z,42.805,6.029,13.3032,4.60126,2470.67,2023-4-23T05:41:39Z
2023-04-23T03:41:41Z,42.805,6.029,13.3031,4.60109,2470.646,2023-4-23T05:44:42Z
2023-04-23T03:44:44Z,42.805,6.029,13.3034,4.60114,2470.661,2023-4-23T05:47:46Z
2023-04-23T03:47:48Z,42.805,6.029,13.3036,4.60111,2470.637,2023-4-23T05:50:49Z
2023-04-23T03:50:51Z,42.805,6.029,13.3036,4.60110,2470.637,2023-4-23T05:53:52Z
2023-04-23T03:53:54Z,42.805,6.029,13.3039,4.60110,2470.646,2023-4-23T05:56:55Z
2023-04-23T03:56:57Z,42.805,6.029,13.3029,4.60107,2470.637,2023-4-23T05:59:58Z
2023-04-23T04:00:00Z,42.805,6.029,13.3036,4.60104,2470.624,2023-4-23T06:03:01Z
2023-04-23T04:03:03Z,42.805,6.029,13.3036,4.60113,2470.646,2023-4-23T06:06:04Z
2023-04-23T04:06:06Z,42.805,6.029,13.3036,4.60122,2470.624,2023-4-23T06:09:07Z
2023-04-23T04:09:09Z,42.805,6.029,13.3031,4.60107,2470.661,2023-4-23T06:12:10Z
2023-04-23T04:12:12Z,42.805,6.029,13.3030,4.60102,2470.646,2023-4-23T06:15:13Z
2023-04-23T04:15:15Z,42.805,6.029,13.3027,4.60104,2470.646,2023-4-23T06:18:16Z
2023-04-23T04:18:18Z,42.805,6.029,13.3031,4.60109,2470.684,2023-4-23T06:21:19Z
2023-04-23T04:21:21Z,42.805,6.029,13.3029,4.60099,2470.614,2023-4-23T06:24:23Z
2023-04-23T04:24:25Z,42.805,6.029,13.3035,4.60114,2470.661,2023-4-23T06:27:26Z
2023-04-23T04:27:28Z,42.805,6.029,13.3029,4.60108,2470.661,2023-4-23T06:30:29Z
2023-04-23T04:30:31Z,42.805,6.029,13.3039,4.60104,2470.646,2023-4-23T06:33:32Z
2023-04-23T04:33:34Z,42.805,6.029,13.3036,4.60103,2470.624,2023-4-23T06:36:35Z
2023-04-23T04:36:37Z,42.805,6.029,13.3035,4.60103,2470.637,2023-4-23T06:39:38Z
2023-04-23T04:39:40Z,42.805,6.029,13.3034,4.60116,2470.624,2023-4-23T06:42:41Z
2023-04-23T04:42:43Z,42.805,6.029,13.3039,4.60108,2470.637,2023-4-23T06:45:44Z
2023-04-23T04:45:46Z,42.805,6.029,13.3031,4.60099,2470.646,2023-4-23T06:48:47Z
2023-04-23T04:48:49Z,42.805,6.029,13.3029,4.60105,2470.646,2023-4-23T06:51:50Z
2023-04-23T04:51:52Z,42.805,6.029,13.3031,4.60122,2470.646,2023-4-23T06:54:53Z
2023-04-23T04:54:55Z,42.805,6.029,13.3034,4.60096,2470.624,2023-4-23T06:57:57Z
2023-04-23T04:57:58Z,42.805,6.029,13.3036,4.60098,2470.646,2023-4-23T07:01:00Z
2023-04-23T05:01:02Z,42.805,6.029,13.3032,4.60098,2470.624,2023-4-23T07:04:03Z
2023-04-23T05:04:05Z,42.805,6.029,13.3026,4.60115,2470.661,2023-4-23T07:07:06Z
2023-04-23T05:07:08Z,42.805,6.029,13.3033,4.60112,2470.67,2023-4-23T07:10:09Z
2023-04-23T05:10:11Z,42.805,6.029,13.3031,4.60118,2470.684,2023-4-23T07:13:12Z
2023-04-23T05:13:14Z,42.805,6.029,13.3037,4.60098,2470.646,2023-4-23T07:16:15Z
2023-04-23T05:16:17Z,42.805,6.029,13.3030,4.60111,2470.646,2023-4-23T07:19:18Z
2023-04-23T05:19:20Z,42.805,6.029,13.3028,4.60098,2470.646,2023-4-23T07:22:21Z
2023-04-23T05:22:23Z,42.805,6.029,13.3032,4.60108,2470.661,2023-4-23T07:25:24Z
2023-04-23T05:25:26Z,42.805,6.029,13.3024,4.60094,2470.646,2023-4-23T07:28:27Z
2023-04-23T05:28:29Z,42.805,6.029,13.3025,4.60093,2470.67,2023-4-23T07:31:30Z
2023-04-23T05:31:32Z,42.805,6.029,13.3027,4.60094,2470.646,2023-4-23T07:34:33Z
2023-04-23T05:34:35Z,42.805,6.029,13.3027,4.60099,2470.661,2023-4-23T07:37:37Z
2023-04-23T05:37:39Z,42.805,6.029,13.3029,4.60122,2470.693,2023-4-23T07:40:40Z
2023-04-23T05:40:42Z,42.805,6.029,13.3027,4.60110,2470.661,2023-4-23T07:43:43Z
2023-04-23T05:43:45Z,42.805,6.029,13.3030,4.60099,2470.693,2023-4-23T07:46:46Z
2023-04-23T05:46:48Z,42.805,6.029,13.3030,4.60110,2470.661,2023-4-23T07:49:49Z
2023-04-23T05:49:51Z,42.805,6.029,13.3033,4.60107,2470.67,2023-4-23T07:52:52Z
2023-04-23T05:52:54Z,42.805,6.029,13.3036,4.60115,2470.646,2023-4-23T07:55:55Z
2023-04-23T05:55:57Z,42.805,6.029,13.3030,4.60095,2470.661,2023-4-23T07:58:58Z
2023-04-23T05:59:00Z,42.805,6.029,13.3029,4.60113,2470.646,2023-4-23T08:02:01Z
2023-04-23T06:02:03Z,42.805,6.029,13.3029,4.60129,2470.693,2023-4-23T08:05:04Z
2023-04-23T06:05:06Z,42.805,6.029,13.3033,4.60104,2470.693,2023-4-23T08:08:07Z
2023-04-23T06:08:09Z,42.805,6.029,13.3029,4.60104,2470.67,2023-4-23T08:11:10Z
2023-04-23T06:11:12Z,42.805,6.029,13.3034,4.60112,2470.67,2023-4-23T08:14:13Z
2023-04-23T06:14:15Z,42.805,6.029,13.3043,4.60103,2470.679,2023-4-23T08:17:17Z
2023-04-23T06:17:19Z,42.805,6.029,13.3033,4.60100,2470.707,2023-4-23T08:20:20Z
2023-04-23T06:20:22Z,42.805,6.029,13.3029,4.60114,2470.717,2023-4-23T08:23:23Z
2023-04-23T06:23:25Z,42.805,6.029,13.3033,4.60113,2470.67,2023-4-23T08:26:26Z
2023-04-23T06:26:28Z,42.805,6.029,13.3030,4.60098,2470.707,2023-4-23T08:29:29Z
2023-04-23T06:29:31Z,42.805,6.029,13.3034,4.60112,2470.693,2023-4-23T08:32:32Z
2023-04-23T06:32:34Z,42.805,6.029,13.3034,4.60110,2470.754,2023-4-23T08:35:35Z
2023-04-23T06:35:37Z,42.805,6.029,13.3034,4.60110,2470.73,2023-4-23T08:38:38Z
2023-04-23T06:38:40Z,42.805,6.029,13.3036,4.60099,2470.717,2023-4-23T08:41:41Z
2023-04-23T06:41:43Z,42.805,6.029,13.3029,4.60105,2470.74,2023-4-23T08:44:44Z
2023-04-23T06:44:46Z,42.805,6.029,13.3036,4.60107,2470.717,2023-4-23T08:47:47Z
2023-04-23T06:47:49Z,42.805,6.029,13.3033,4.60099,2470.754,2023-4-23T08:50:50Z
2023-04-23T06:50:52Z,42.805,6.029,13.3034,4.60091,2470.717,2023-4-23T08:53:54Z
2023-04-23T06:53:56Z,42.805,6.029,13.3033,4.60099,2470.703,2023-4-23T08:56:57Z
2023-04-23T06:56:59Z,42.805,6.029,13.3036,4.60110,2470.74,2023-4-23T09:00:00Z
2023-04-23T07:00:02Z,42.805,6.029,13.3034,4.60105,2470.73,2023-4-23T09:03:03Z
2023-04-23T07:03:05Z,42.805,6.029,13.3031,4.60106,2470.74,2023-4-23T09:06:06Z
2023-04-23T07:06:08Z,42.805,6.029,13.3031,4.60089,2470.74,2023-4-23T09:09:09Z
2023-04-23T07:09:11Z,42.805,6.029,13.3031,4.60093,2470.74,2023-4-23T09:12:12Z
2023-04-23T07:12:14Z,42.805,6.029,13.3031,4.60089,2470.74,2023-4-23T09:15:15Z
2023-04-23T07:15:17Z,42.805,6.029,13.3028,4.60084,2470.74,2023-4-23T09:18:18Z
2023-04-23T07:18:20Z,42.805,6.029,13.3021,4.60079,2470.74,2023-4-23T09:21:21Z
2023-04-23T07:21:23Z,42.805,6.029,13.3026,4.60080,2470.763,2023-4-23T09:24:24Z
2023-04-23T07:24:26Z,42.805,6.029,13.3024,4.60085,2470.74,2023-4-23T09:27:27Z
2023-04-23T07:27:29Z,42.805,6.029,13.3024,4.60081,2470.754,2023-4-23T09:30:31Z
2023-04-23T07:30:33Z,42.805,6.029,13.3028,4.60089,2470.74,2023-4-23T09:33:34Z
2023-04-23T07:33:36Z,42.805,6.029,13.3027,4.60102,2470.763,2023-4-23T09:36:37Z
2023-04-23T07:36:39Z,42.805,6.029,13.3025,4.60101,2470.74,2023-4-23T09:39:40Z
2023-04-23T07:39:42Z,42.805,6.029,13.3033,4.60092,2470.777,2023-4-23T09:42:43Z
2023-04-23T07:42:45Z,42.805,6.029,13.3029,4.60084,2470.74,2023-4-23T09:45:46Z
2023-04-23T07:45:48Z,42.805,6.029,13.3026,4.60083,2470.763,2023-4-23T09:48:49Z
2023-04-23T07:48:51Z,42.805,6.029,13.3024,4.60082,2470.787,2023-4-23T09:51:52Z
2023-04-23T07:51:54Z,42.805,6.029,13.3028,4.60082,2470.763,2023-4-23T09:54:55Z
2023-04-23T07:54:57Z,42.805,6.029,13.3025,4.60081,2470.787,2023-4-23T09:57:58Z
2023-04-23T07:58:00Z,42.805,6.029,13.3031,4.60098,2470.763,2023-4-23T10:01:01Z
2023-04-23T08:01:03Z,42.805,6.029,13.3030,4.60099,2470.763,2023-4-23T10:04:04Z
2023-04-23T08:04:06Z,42.805,6.029,13.3023,4.60094,2470.787,2023-4-23T10:07:08Z
2023-04-23T08:07:09Z,42.805,6.029,13.3031,4.60104,2470.74,2023-4-23T10:10:11Z
2023-04-23T08:10:13Z,42.805,6.029,13.3029,4.60082,2470.777,2023-4-23T10:13:14Z
2023-04-23T08:13:16Z,42.805,6.029,13.3022,4.60086,2470.787,2023-4-23T10:16:17Z
2023-04-23T08:16:19Z,42.805,6.029,13.3029,4.60091,2470.763,2023-4-23T10:19:20Z
2023-04-23T08:19:22Z,42.805,6.029,13.3024,4.60087,2470.787,2023-4-23T10:22:23Z
2023-04-23T08:22:25Z,42.805,6.029,13.3024,4.60089,2470.777,2023-4-23T10:25:26Z
2023-04-23T08:25:28Z,42.805,6.029,13.3025,4.60087,2470.787,2023-4-23T10:28:29Z
2023-04-23T08:28:31Z,42.805,6.029,13.3028,4.60088,2470.787,2023-4-23T10:31:32Z
2023-04-23T08:31:34Z,42.805,6.029,13.3024,4.60090,2470.763,2023-4-23T10:34:35Z
2023-04-23T08:34:37Z,42.805,6.029,13.3022,4.60084,2470.763,2023-4-23T10:37:38Z
2023-04-23T08:37:40Z,42.805,6.029,13.3031,4.60093,2470.787,2023-4-23T10:40:42Z
2023-04-23T08:40:43Z,42.805,6.029,13.3026,4.60090,2470.763,2023-4-23T10:43:45Z
2023-04-23T08:43:47Z,42.805,6.029,13.3028,4.60081,2470.787,2023-4-23T10:46:48Z
2023-04-23T08:46:50Z,42.805,6.029,13.3024,4.60089,2470.763,2023-4-23T10:49:51Z
2023-04-23T08:49:53Z,42.805,6.029,13.3026,4.60086,2470.787,2023-4-23T10:52:54Z
2023-04-23T08:52:56Z,42.805,6.029,13.3023,4.60084,2470.8,2023-4-23T10:55:57Z
2023-04-23T08:55:59Z,42.805,6.029,13.3021,4.60081,2470.787,2023-4-23T10:59:00Z
2023-04-23T08:59:02Z,42.805,6.029,13.3025,4.60084,2470.8,2023-4-23T11:02:03Z
2023-04-23T09:02:05Z,42.805,6.029,13.3022,4.60082,2470.8,2023-4-23T11:05:06Z
2023-04-23T09:05:08Z,42.805,6.029,13.3024,4.60083,2470.787,2023-4-23T11:08:09Z
2023-04-23T09:08:11Z,42.805,6.029,13.3028,4.60085,2470.8,2023-4-23T11:11:12Z
2023-04-23T09:11:14Z,42.805,6.029,13.3026,4.60086,2470.763,2023-4-23T11:14:15Z
2023-04-23T09:14:17Z,42.805,6.029,13.3029,4.60092,2470.763,2023-4-23T11:17:19Z
2023-04-23T09:17:20Z,42.805,6.029,13.3031,4.60089,2470.763,2023-4-23T11:20:22Z
2023-04-23T09:20:24Z,42.805,6.029,13.3023,4.60087,2470.787,2023-4-23T11:23:25Z
2023-04-23T09:23:27Z,42.805,6.029,13.3022,4.60094,2470.763,2023-4-23T11:26:28Z
2023-04-23T09:26:30Z,42.805,6.029,13.3024,4.60082,2470.787,2023-4-23T11:29:31Z
2023-04-23T09:29:33Z,42.805,6.029,13.3021,4.60087,2470.787,2023-4-23T11:32:34Z
2023-04-23T09:32:36Z,42.805,6.029,13.3026,4.60104,2470.763,2023-4-23T11:35:37Z
2023-04-23T09:35:39Z,42.805,6.029,13.3026,4.60089,2470.787,2023-4-23T11:38:40Z
2023-04-23T09:38:42Z,42.805,6.029,13.3031,4.60106,2470.754,2023-4-23T11:41:43Z
2023-04-23T09:41:45Z,42.805,6.029,13.3031,4.60092,2470.763,2023-4-23T11:44:46Z
2023-04-23T09:44:48Z,42.805,6.029,13.3025,4.60085,2470.787,2023-4-23T11:47:49Z
2023-04-23T09:47:51Z,42.805,6.029,13.3024,4.60097,2470.763,2023-4-23T11:50:53Z
2023-04-23T09:50:54Z,42.805,6.029,13.3035,4.60092,2470.773,2023-4-23T11:53:56Z
2023-04-23T09:53:58Z,42.805,6.029,13.3026,4.60092,2470.777,2023-4-23T11:56:59Z
2023-04-23T09:57:01Z,42.805,6.029,13.3027,4.60079,2470.717,2023-4-23T12:00:02Z
2023-04-23T10:00:04Z,42.805,6.029,13.3023,4.60114,2470.74,2023-4-23T12:03:05Z
2023-04-23T10:03:07Z,42.805,6.029,13.3031,4.60098,2470.777,2023-4-23T12:06:08Z
2023-04-23T10:06:10Z,42.805,6.029,13.3027,4.60088,2470.74,2023-4-23T12:09:11Z
2023-04-23T10:09:13Z,42.805,6.029,13.3031,4.60090,2470.754,2023-4-23T12:12:14Z
2023-04-23T10:12:16Z,42.805,6.029,13.3028,4.60088,2470.74,2023-4-23T12:15:17Z
2023-04-23T10:15:19Z,42.805,6.029,13.3030,4.60088,2470.717,2023-4-23T12:18:20Z
2023-04-23T10:18:22Z,42.805,6.029,13.3033,4.60094,2470.763,2023-4-23T12:21:23Z
2023-04-23T10:21:25Z,42.805,6.029,13.3036,4.60107,2470.74,2023-4-23T12:24:26Z
2023-04-23T10:24:28Z,42.805,6.029,13.3027,4.60094,2470.763,2023-4-23T12:27:30Z
2023-04-23T10:27:31Z,42.805,6.029,13.3026,4.60098,2470.74,2023-4-23T12:30:33Z
2023-04-23T10:30:34Z,42.805,6.029,13.3029,4.60094,2470.73,2023-4-23T12:33:36Z
2023-04-23T10:33:38Z,42.805,6.029,13.3030,4.60098,2470.73,2023-4-23T12:36:39Z
2023-04-23T10:36:41Z,42.805,6.029,13.3025,4.60093,2470.763,2023-4-23T12:39:42Z
2023-04-23T10:39:44Z,42.805,6.029,13.3024,4.60084,2470.763,2023-4-23T12:42:45Z
2023-04-23T10:42:47Z,42.805,6.029,13.3024,4.60086,2470.74,2023-4-23T12:45:48Z
2023-04-23T10:45:50Z,42.805,6.029,13.3026,4.60091,2470.74,2023-4-23T12:48:51Z
2023-04-23T10:48:53Z,42.805,6.029,13.3023,4.60101,2470.74,2023-4-23T12:51:54Z
2023-04-23T10:51:56Z,42.805,6.029,13.3027,4.60105,2470.74,2023-4-23T12:54:57Z
2023-04-23T10:54:59Z,42.805,6.029,13.3025,4.60102,2470.74,2023-4-23T12:58:00Z
2023-04-23T10:58:02Z,42.805,6.029,13.3034,4.60110,2470.74,2023-4-23T13:01:03Z
2023-04-23T11:01:05Z,42.805,6.029,13.3029,4.60089,2470.703,2023-4-23T13:04:07Z
2023-04-23T11:04:08Z,42.805,6.029,13.3026,4.60087,2470.717,2023-4-23T13:07:10Z
2023-04-23T11:07:11Z,42.805,6.029,13.3027,4.60109,2470.74,2023-4-23T13:10:13Z
2023-04-23T11:10:15Z,42.805,6.029,13.3026,4.60087,2470.74,2023-4-23T13:13:16Z
2023-04-23T11:13:18Z,42.805,6.029,13.3024,4.60088,2470.717,2023-4-23T13:16:19Z
2023-04-23T11:16:21Z,42.805,6.029,13.3029,4.60102,2470.693,2023-4-23T13:19:22Z
2023-04-23T11:19:24Z,42.805,6.029,13.3030,4.60102,2470.693,2023-4-23T13:22:25Z
2023-04-23T11:22:27Z,42.805,6.029,13.3024,4.60092,2470.693,2023-4-23T13:25:28Z
2023-04-23T11:25:30Z,42.805,6.029,13.3029,4.60087,2470.717,2023-4-23T13:28:31Z
2023-04-23T11:28:33Z,42.805,6.029,13.3028,4.60099,2470.693,2023-4-23T13:31:34Z
2023-04-23T11:31:36Z,42.805,6.029,13.3026,4.60092,2470.693,2023-4-23T13:34:37Z
2023-04-23T11:34:39Z,42.805,6.029,13.3027,4.60091,2470.73,2023-4-23T13:37:40Z
2023-04-23T11:37:42Z,42.805,6.029,13.3027,4.60096,2470.67,2023-4-23T13:40:44Z
2023-04-23T11:40:45Z,42.805,6.029,13.3024,4.60086,2470.679,2023-4-23T13:43:47Z
2023-04-23T11:43:48Z,42.805,6.029,13.3028,4.60084,2470.67,2023-4-23T13:46:50Z
2023-04-23T11:46:52Z,42.805,6.029,13.3032,4.60094,2470.707,2023-4-23T13:49:53Z
2023-04-23T11:49:55Z,42.805,6.029,13.3029,4.60089,2470.707,2023-4-23T13:52:56Z
2023-04-23T11:52:58Z,42.805,6.029,13.3029,4.60086,2470.707,2023-4-23T13:55:59Z
2023-04-23T11:56:01Z,42.805,6.029,13.3024,4.60085,2470.693,2023-4-23T13:59:02Z
2023-04-23T11:59:04Z,42.805,6.029,13.3024,4.60084,2470.67,2023-4-23T14:02:05Z
2023-04-23T12:02:07Z,42.805,6.029,13.3023,4.60088,2470.684,2023-4-23T14:05:08Z
2023-04-23T12:05:10Z,42.805,6.029,13.3025,4.60088,2470.707,2023-4-23T14:08:11Z
2023-04-23T12:08:13Z,42.805,6.029,13.3026,4.60091,2470.67,2023-4-23T14:11:14Z
2023-04-23T12:11:16Z,42.805,6.029,13.3026,4.60087,2470.693,2023-4-23T14:14:17Z
2023-04-23T12:14:19Z,42.805,6.029,13.3035,4.60096,2470.661,2023-4-23T14:17:21Z
2023-04-23T12:17:22Z,42.805,6.029,13.3022,4.60082,2470.67,2023-4-23T14:20:24Z
2023-04-23T12:20:25Z,42.805,6.029,13.3021,4.60081,2470.693,2023-4-23T14:23:27Z
2023-04-23T12:23:29Z,42.805,6.029,13.3022,4.60082,2470.67,2023-4-23T14:26:30Z
2023-04-23T12:26:32Z,42.805,6.029,13.3029,4.60107,2470.633,2023-4-23T14:29:33Z
2023-04-23T12:29:35Z,42.805,6.029,13.3026,4.60091,2470.693,2023-4-23T14:32:36Z
2023-04-23T12:32:38Z,42.805,6.029,13.3029,4.60092,2470.684,2023-4-23T14:35:39Z
2023-04-23T12:35:41Z,42.805,6.029,13.3027,4.60094,2470.693,2023-4-23T14:38:42Z
2023-04-23T12:38:44Z,42.805,6.029,13.3039,4.60092,2470.646,2023-4-23T14:41:45Z
2023-04-23T12:41:47Z,42.805,6.029,13.3028,4.60092,2470.646,2023-4-23T14:44:48Z
2023-04-23T12:44:50Z,42.805,6.029,13.3021,4.60087,2470.624,2023-4-23T14:47:51Z
2023-04-23T12:47:53Z,42.805,6.029,13.3024,4.60091,2470.661,2023-4-23T14:50:55Z
2023-04-23T12:50:56Z,42.805,6.029,13.3031,4.60085,2470.67,2023-4-23T14:53:58Z
2023-04-23T12:53:59Z,42.805,6.029,13.3024,4.60087,2470.646,2023-4-23T14:57:01Z
2023-04-23T12:57:02Z,42.805,6.029,13.3029,4.60089,2470.661,2023-4-23T15:00:04Z
2023-04-23T13:00:06Z,42.805,6.029,13.3029,4.60099,2470.637,2023-4-23T15:03:07Z
2023-04-23T13:03:09Z,42.805,6.029,13.3029,4.60102,2470.614,2023-4-23T15:06:10Z
2023-04-23T13:06:12Z,42.805,6.029,13.3033,4.60102,2470.624,2023-4-23T15:09:13Z
2023-04-23T13:09:15Z,42.805,6.029,13.3026,4.60090,2470.67,2023-4-23T15:12:16Z
2023-04-23T13:12:18Z,42.805,6.029,13.3026,4.60089,2470.661,2023-4-23T15:15:19Z
2023-04-23T13:15:21Z,42.805,6.029,13.3024,4.60082,2470.67,2023-4-23T15:18:22Z
2023-04-23T13:18:24Z,42.805,6.029,13.3030,4.60089,2470.646,2023-4-23T15:21:25Z
2023-04-23T13:21:27Z,42.805,6.029,13.3024,4.60092,2470.646,2023-4-23T15:24:28Z
2023-04-23T13:24:30Z,42.805,6.029,13.3029,4.60092,2470.624,2023-4-23T15:27:32Z
2023-04-23T13:27:33Z,42.805,6.029,13.3019,4.60089,2470.637,2023-4-23T15:30:35Z
2023-04-23T13:30:36Z,42.805,6.029,13.3034,4.60096,2470.661,2023-4-23T15:33:38Z
2023-04-23T13:33:40Z,42.805,6.029,13.3031,4.60106,2470.646,2023-4-23T15:36:41Z
2023-04-23T13:36:43Z,42.805,6.029,13.3026,4.60098,2470.637,2023-4-23T15:39:44Z
2023-04-23T13:39:46Z,42.805,6.029,13.3031,4.60095,2470.67,2023-4-23T15:42:47Z
2023-04-23T13:42:49Z,42.805,6.029,13.3029,4.60087,2470.637,2023-4-23T15:45:50Z
2023-04-23T13:45:52Z,42.805,6.029,13.3029,4.60098,2470.624,2023-4-23T15:48:53Z
2023-04-23T13:48:55Z,42.805,6.029,13.3028,4.60093,2470.637,2023-4-23T15:51:56Z
2023-04-23T13:51:58Z,42.805,6.029,13.3030,4.60085,2470.624,2023-4-23T15:54:59Z
2023-04-23T13:55:01Z,42.805,6.029,13.3026,4.60099,2470.646,2023-4-23T15:58:02Z
2023-04-23T13:58:04Z,42.805,6.029,13.3029,4.60102,2470.614,2023-4-23T16:01:06Z
2023-04-23T14:01:07Z,42.805,6.029,13.3024,4.60092,2470.624,2023-4-23T16:04:09Z
2023-04-23T14:04:10Z,42.805,6.029,13.3026,4.60098,2470.661,2023-4-23T16:07:12Z
2023-04-23T14:07:14Z,42.805,6.029,13.3026,4.60089,2470.661,2023-4-23T16:10:15Z
2023-04-23T14:10:17Z,42.805,6.029,13.3026,4.60098,2470.637,2023-4-23T16:13:18Z
2023-04-23T14:13:20Z,42.805,6.029,13.3026,4.60095,2470.6,2023-4-23T16:16:21Z
2023-04-23T14:16:23Z,42.805,6.029,13.3028,4.60088,2470.646,2023-4-23T16:19:24Z
2023-04-23T14:19:26Z,42.805,6.029,13.3030,4.60104,2470.614,2023-4-23T16:22:27Z
2023-04-23T14:22:29Z,42.805,6.029,13.3031,4.60102,2470.637,2023-4-23T16:25:30Z
2023-04-23T14:25:32Z,42.805,6.029,13.3026,4.60091,2470.624,2023-4-23T16:28:33Z
2023-04-23T14:28:35Z,42.805,6.029,13.3031,4.60092,2470.624,2023-4-23T16:31:36Z
2023-04-23T14:31:40Z,42.805,6.029,13.3029,4.60091,2470.624,2023-4-23T16:34:41Z
2023-04-23T14:34:43Z,42.805,6.029,13.3030,4.60098,2470.661,2023-4-23T16:37:44Z
2023-04-23T14:37:46Z,42.805,6.029,13.3025,4.60097,2470.637,2023-4-23T16:40:47Z
2023-04-23T14:40:49Z,42.805,6.029,13.3026,4.60095,2470.577,2023-4-23T16:43:51Z
2023-04-23T14:43:52Z,42.805,6.029,13.3031,4.60099,2470.624,2023-4-23T16:46:54Z
2023-04-23T14:46:55Z,42.805,6.029,13.3029,4.60100,2470.6,2023-4-23T16:49:57Z
2023-04-23T14:49:58Z,42.805,6.029,13.3028,4.60097,2470.624,2023-4-23T16:53:00Z
2023-04-23T14:53:02Z,42.805,6.029,13.3034,4.60103,2470.637,2023-4-23T16:56:03Z
2023-04-23T14:56:05Z,42.805,6.029,13.3031,4.60107,2470.6,2023-4-23T16:59:06Z
2023-04-23T14:59:08Z,42.805,6.029,13.3028,4.60091,2470.624,2023-4-23T17:02:09Z
2023-04-23T15:02:11Z,42.805,6.029,13.3032,4.60103,2470.624,2023-4-23T17:05:12Z
2023-04-23T15:05:14Z,42.805,6.029,13.3031,4.60102,2470.624,2023-4-23T17:08:15Z
2023-04-23T15:08:17Z,42.805,6.029,13.3029,4.60095,2470.614,2023-4-23T17:11:18Z
2023-04-23T15:11:20Z,42.805,6.029,13.3029,4.60095,2470.646,2023-4-23T17:14:21Z